Theta_e
291 291 291 291 292 292 292 292 293 294 293 294 295 295 294 294 294 294 293 294 295 296 296 297 296 297 297 298 300 302 302 301 298 298 299 302 304 309 313 310 313 312 313
291 291 291 291 291 291 291 293 293 293 294 294 294 294 294 294 294 293 293 293 293 294 295 296 296 298 297 297 298 300 302 303 301 296 298 299 302 305 308 310 310 312 312
291 290 290 291 291 291 290 292 293 293 293 293 293 293 293 294 294 294 294 293 293 294 295 296 296 297 296 296 296 298 299 302 300 297 297 299 301 303 304 309 307 304 311
291 290 289 289 290 290 292 292 292 293 292 293 294 294 293 294 294 294 294 294 293 294 295 296 297 297 297 297 297 297 298 298 296 297 296 297 299 300 300 302 305 304 304
289 289 289 290 291 291 291 291 292 294 293 294 294 293 294 295 295 295 296 295 294 294 294 296 297 299 303 303 299 297 299 296 296 295 295 296 297 298 297 299 299 303 304
289 290 290 290 290 291 291 292 293 293 293 293 292 293 293 294 299 300 298 296 296 296 293 295 296 299 300 305 305 306 302 296 297 295 295 295 294 296 297 298 299 298 297
288 289 289 290 290 290 292 292 291 292 292 292 293 293 293 294 299 301 300 296 295 295 295 295 295 298 300 299 302 304 304 305 303 298 298 297 295 297 297 296 299 300 299
287 288 289 290 290 291 291 291 291 292 292 292 292 293 293 295 299 300 300 295 295 295 295 295 295 296 298 298 297 296 297 298 299 301 300 299 298 299 299 300 299 299 301
287 287 289 290 290 290 290 290 291 291 292 292 293 293 293 293 298 299 297 294 293 294 295 296 296 296 299 302 297 295 294 296 302 305 306 306 308 307 303 300 298 298 296
288 289 290 291 290 290 291 291 292 292 292 293 292 293 296 294 298 299 297 294 291 292 294 295 299 297 300 301 296 295 293 295 295 298 299 302 305 304 309 301 299 298 295
289 290 291 291 291 291 292 292 292 292 292 292 292 293 294 295 295 298 299 295 293 292 292 293 295 300 301 302 302 297 295 298 298 294 294 294 294 296 300 303 302 301 297
289 290 290 291 292 292 291 292 292 292 291 291 291 292 293 295 298 298 299 299 297 293 293 294 294 299 300 301 301 302 302 301 294 293 292 292 293 294 298 302 304 304 301
289 290 290 291 291 292 292 291 291 291 291 291 292 292 292 294 295 298 299 300 300 295 295 295 298 299 300 299 301 302 302 296 296 294 293 292 294 296 298 300 302 305 303
289 290 290 290 291 292 292 291 291 290 291 294 296 295 294 294 294 295 295 295 297 297 297 296 297 298 298 296 296 296 295 294 293 292 292 293 297 296 298 301 299 300 302
290 290 290 290 291 290 291 291 291 294 296 296 296 296 294 294 296 299 298 294 293 292 293 294 293 293 290 290 291 292 294 295 295 294 294 295 297 299 300 302 300 300 300
289 289 290 291 290 290 290 289 295 299 300 300 300 299 297 299 300 301 302 302 296 296 291 289 289 291 289 289 290 291 292 295 295 295 297 298 298 299 300 299 300 298 299
289 289 290 290 289 289 289 289 292 296 298 298 299 299 299 298 298 300 298 297 297 296 290 289 290 292 293 293 293 290 291 294 294 296 297 297 299 299 299 299 299 299 298
290 292 290 290 290 289 289 292 293 292 291 292 296 297 298 297 297 296 296 295 292 294 293 292 292 294 294 295 295 294 293 293 294 296 298 298 297 298 298 299 299 298 298
290 289 290 290 290 291 291 292 292 292 291 291 292 294 295 296 296 296 295 291 289 289 290 289 291 292 293 294 295 296 297 296 295 294 296 296 298 299 298 298 298 299 299
288 291 292 290 289 290 290 291 290 290 290 289 290 292 293 293 291 291 292 291 290 290 290 291 292 293 293 293 293 293 293 294 294 296 296 297 298 298 297 298 299 298 298
288 289 292 289 289 289 290 289 289 289 289 289 290 294 295 291 290 290 290 290 289 289 289 290 291 291 292 292 292 292 293 293 293 293 294 295 296 296 298 299 298 298 298
289 289 289 289 289 289 289 289 289 289 288 289 290 292 294 291 291 290 290 289 290 290 291 290 290 291 291 290 290 290 289 290 292 293 293 294 295 296 297 297 298 298 298
289 288 288 288 289 290 289 288 288 289 289 290 290 290 291 291 290 289 289 289 289 289 289 290 290 290 291 292 292 292 290 290 292 294 294 295 295 296 297 298 297 300 302
288 288 288 288 288 288 288 288 288 290 290 290 290 290 290 291 290 289 289 289 288 287 288 288 289 290 290 291 293 294 293 294 295 294 294 295 297 298 299 301 302 302 302
288 288 288 288 288 287 287 288 288 289 289 290 290 290 291 290 289 289 289 287 287 286 287 287 289 290 290 291 292 293 293 293 294 295 296 298 300 302 302 302 302 302 302
288 288 287 288 288 288 287 287 288 289 289 290 290 291 290 290 290 289 288 287 286 286 286 288 289 290 291 291 292 293 293 293 295 296 299 302 302 302 302 302 302 301 301
Wind_Speed
6 5 6 6 7 7 6 7 9 8 6 7 11 13 15 15 13 11 12 14 16 16 12 12 12 11 11 10 6 8 7 6 12 4 4 5 4 5 4 1 6 6 5
5 5 7 7 6 6 6 9 7 11 11 14 15 14 15 16 13 12 14 14 16 17 15 15 16 10 15 10 8 12 11 7 9 7 5 4 6 6 5 5 2 7 10
6 7 7 6 7 9 6 9 14 15 15 14 15 15 16 16 16 16 15 16 16 17 17 14 16 14 11 8 6 7 7 7 6 4 5 4 4 2 2 4 4 2 4
7 7 7 7 7 6 11 12 15 15 16 16 16 17 17 17 16 17 16 17 17 17 17 14 15 12 14 6 9 7 5 5 5 4 4 4 3 4 1 2 3 2 4
7 7 7 6 9 14 14 14 15 16 17 17 18 17 17 15 14 17 15 18 17 16 13 14 12 18 26 20 10 5 7 5 4 4 4 3 4 3 4 3 2 2 4
6 10 8 10 14 15 14 16 18 17 18 18 18 18 17 14 26 29 28 17 17 17 16 14 16 21 21 26 22 21 5 7 10 5 3 4 5 5 4 4 3 2 4
7 9 10 12 16 15 16 18 19 18 18 18 18 17 18 18 28 32 29 16 14 13 13 13 13 11 21 12 22 20 13 18 8 3 2 2 6 6 6 5 4 4 3
8 9 9 14 16 17 19 19 19 17 18 17 18 18 18 15 28 27 28 14 12 11 11 13 10 11 12 7 5 3 6 8 6 9 12 12 6 7 7 6 7 5 3
8 10 14 15 17 19 19 20 18 17 17 17 18 18 18 16 24 28 23 12 10 9 8 9 10 11 13 21 9 7 5 4 8 27 23 14 14 14 10 4 3 3 3
10 13 15 17 18 19 20 19 17 18 19 15 18 17 22 17 23 25 22 8 7 6 7 9 18 13 20 21 7 5 5 9 6 7 5 8 8 7 12 7 5 6 3
12 14 16 18 18 19 18 18 17 17 17 17 18 16 16 16 15 23 24 11 7 6 6 6 6 16 19 19 16 6 13 13 8 5 5 3 1 2 4 5 7 7 5
13 15 17 18 16 15 18 16 17 16 16 17 17 14 11 12 20 19 23 21 16 7 7 6 6 15 16 15 12 17 19 14 5 5 4 4 4 4 5 6 8 9 5
14 17 17 18 17 16 16 17 14 14 13 14 13 11 10 9 9 20 21 22 21 10 7 9 14 15 12 7 10 13 13 5 7 5 5 4 4 5 5 4 5 10 8
15 17 16 17 19 16 13 11 11 11 12 11 11 11 9 9 9 9 10 10 16 11 11 10 11 10 9 6 4 3 2 4 4 4 4 4 4 3 4 5 5 5 5
15 16 15 13 14 14 12 11 11 12 13 10 10 11 11 11 11 19 15 11 9 8 5 3 3 3 3 2 2 3 3 4 4 4 5 5 6 6 6 6 5 7 6
14 13 13 12 12 11 11 12 20 19 21 22 24 20 12 26 33 27 12 20 22 16 4 3 2 3 4 4 4 4 4 7 4 4 6 7 7 7 6 4 4 5 6
14 14 12 13 11 11 11 11 10 11 17 22 25 25 27 30 34 24 25 22 17 12 3 2 3 4 5 5 6 5 5 5 6 5 7 7 7 7 8 7 7 7 7
13 23 12 11 10 10 10 10 8 8 9 10 15 20 25 27 30 30 25 18 8 9 6 5 4 2 4 7 7 7 6 6 7 7 7 8 7 7 6 8 8 9 8
11 11 11 10 9 12 9 9 8 8 8 9 8 12 18 21 24 26 24 11 9 8 7 6 4 4 4 3 2 1 6 8 8 5 6 6 7 8 8 8 8 11 9
10 21 17 10 9 9 9 8 7 7 7 8 8 8 8 10 10 10 10 9 9 8 7 6 6 5 5 4 5 4 4 4 4 5 5 6 7 8 9 8 7 7 7
7 9 18 9 9 8 8 8 7 7 7 7 7 11 21 9 8 9 9 9 8 8 7 7 6 6 6 6 5 4 3 2 2 3 3 4 4 5 5 6 6 5 4
7 9 9 9 9 9 8 7 7 7 7 8 7 9 19 8 7 8 9 9 9 8 7 7 6 6 5 5 4 3 3 2 1 3 4 4 4 4 5 4 5 5 6
7 9 9 9 8 11 8 7 6 7 7 7 7 7 8 8 8 9 9 8 8 8 8 7 7 7 6 5 5 4 2 3 3 2 4 5 6 5 5 7 9 9 8
8 8 9 8 8 8 7 7 7 9 8 7 7 7 7 8 7 9 8 9 9 9 9 8 8 10 8 8 7 5 3 3 3 4 6 5 6 7 8 9 9 10 9
7 7 8 8 8 7 8 7 7 7 7 7 7 7 7 8 7 8 8 8 8 9 10 9 8 10 10 13 13 12 10 5 4 6 5 6 8 10 9 8 10 9 11
6 7 7 7 7 7 7 7 6 6 6 7 7 7 8 8 7 8 8 8 8 9 11 9 11 14 13 11 17 19 17 12 7 6 4 7 9 8 9 11 13 9 10
Wind_Direction
342 332 329 307 292 288 290 287 292 308 312 313 310 304 299 291 281 277 280 281 282 284 267 258 252 245 242 237 221 231 228 238 242 242 224 230 224 208 200 115 150 186 257
334 323 306 302 318 316 303 306 311 313 306 298 296 296 294 291 282 281 283 282 279 279 279 264 273 262 242 231 219 229 223 210 261 201 208 241 215 216 203 169 176 192 206
324 319 317 312 303 302 308 311 310 303 295 295 291 286 291 288 288 284 280 280 277 274 269 268 261 275 255 245 210 212 207 216 215 193 205 193 214 230 166 192 177 220 182
311 307 304 297 305 303 305 301 299 294 293 290 287 288 289 284 283 284 280 278 271 267 265 267 272 269 259 237 264 214 202 206 186 200 187 176 165 233 146 164 183 190 124
325 314 300 302 307 307 298 294 299 297 299 293 292 290 287 285 281 283 274 276 267 273 273 264 253 263 268 253 250 222 196 200 203 186 204 164 167 162 178 175 155 231 200
315 313 295 306 308 300 298 301 304 297 297 293 289 287 286 280 286 284 286 277 267 258 253 253 252 258 262 250 264 259 216 202 211 175 176 190 192 176 156 154 163 158 196
294 298 296 303 306 302 303 306 302 296 295 292 290 284 280 279 282 285 282 281 274 262 255 246 252 249 248 238 243 258 245 251 219 161 177 265 200 170 154 151 179 200 223
294 300 308 310 309 309 306 302 301 298 293 289 285 281 275 278 289 287 289 285 278 279 256 251 249 246 243 221 205 211 168 198 216 252 206 206 190 160 168 177 177 182 215
304 312 312 309 312 309 304 301 298 295 291 286 282 283 277 276 273 284 281 275 262 262 244 248 242 245 237 248 215 197 244 259 217 240 232 201 188 174 173 147 185 145 198
312 311 311 315 311 305 301 301 297 294 289 288 285 280 279 280 275 283 282 266 255 244 236 239 250 230 238 243 220 186 251 243 234 180 178 185 191 191 205 184 177 200 167
313 309 310 313 310 304 302 300 299 297 298 293 287 281 275 271 272 279 272 262 242 215 227 229 228 245 246 242 236 184 217 192 210 166 176 196 171 178 205 200 186 191 195
307 310 312 313 309 306 306 305 307 304 301 294 293 285 272 267 264 272 271 264 257 204 209 216 221 240 247 247 240 193 201 174 156 162 169 191 193 200 206 206 187 201 187
319 317 314 313 311 311 313 309 309 307 302 300 296 292 283 272 257 263 268 270 254 237 190 210 232 239 243 242 220 219 217 165 161 168 172 186 186 203 201 174 189 199 172
319 318 316 316 316 317 312 309 307 304 303 311 325 333 310 284 271 255 243 245 267 244 225 215 216 213 227 215 257 291 76 162 163 155 170 190 196 189 195 170 181 184 190
321 319 319 316 317 316 314 312 309 303 311 333 349 346 338 333 323 305 258 211 202 201 175 160 169 162 186 207 202 204 188 190 170 164 178 190 203 199 192 178 172 175 185
322 323 317 320 319 317 317 316 314 332 350 354 1 4 359 359 353 347 325 199 173 190 134 134 176 174 190 201 209 207 190 209 182 184 191 191 196 193 188 174 178 174 183
322 321 322 321 319 321 319 315 323 343 355 0 0 5 10 13 15 57 76 115 145 150 111 144 185 206 210 211 216 206 196 176 180 184 199 195 181 180 186 186 184 180 191
324 327 322 318 322 320 319 319 339 348 351 355 1 7 21 22 31 37 45 48 46 47 55 67 44 20 239 236 227 210 203 206 205 193 189 185 184 180 182 186 180 174 166
328 326 326 325 325 326 324 333 348 350 357 352 354 13 23 24 28 36 37 42 44 46 43 45 32 20 22 27 46 165 205 206 199 184 189 195 199 189 181 171 160 162 161
331 335 336 332 330 333 331 344 351 355 1 358 354 20 13 10 23 25 26 27 32 32 28 30 23 30 40 29 22 31 58 75 98 132 138 150 157 159 160 157 154 169 183
334 332 335 335 336 337 339 349 354 357 1 360 0 24 28 23 24 31 30 29 26 21 16 15 20 25 22 21 21 24 35 69 76 82 82 93 104 122 133 147 163 176 175
339 335 335 337 336 342 347 350 355 1 1 1 7 15 18 17 26 37 30 23 18 19 16 11 10 12 24 21 13 6 354 5 115 157 160 158 157 158 157 164 178 196 233
340 340 340 339 340 343 346 355 359 2 5 9 16 19 20 21 35 35 27 20 15 13 12 10 10 12 8 350 344 331 280 236 225 182 172 175 173 171 180 186 211 210 154
344 341 342 341 346 349 348 354 359 11 13 16 23 23 18 24 39 31 22 18 15 12 10 4 2 7 360 347 345 332 310 241 207 191 190 183 177 172 207 188 149 141 133
345 343 345 343 347 345 345 357 7 12 12 18 18 17 33 37 36 32 26 15 10 8 4 1 1 355 357 349 360 7 15 99 165 181 187 186 190 162 131 126 127 126 131
343 348 347 342 347 350 354 355 4 9 16 16 20 25 30 34 32 28 26 16 8 7 3 1 5 1 359 1 5 14 24 42 73 93 147 128 115 115 116 118 121 121 123